Regional Weather Roundup
Issued by NWS

Home | Current Version | Previous Version | Graphics & Text | Print | Product List | Glossary On
Versions: 1 2 3 4 5 6 7 8 9 10 11 12 13 14 15 16 17 18 19 20 21 22 23 24 25 26 27 28 29 30 31 32 33 34 35 36 37 38 39 40 41 42 43 44 45 46 47 48 49 50
000
ASUS45 KCYS 301210
RWRWY

WYOMING REGIONAL WEATHER ROUNDUP
NATIONAL WEATHER SERVICE CHEYENNE WY
600 AM MDT SAT AUG 30 2014

NOTE:  "FAIR" INDICATES FEW OR NO CLOUDS BELOW 12,000 FEET
WITH NO SIGNIFICANT WEATHER AND/OR OBSTRUCTIONS TO VISIBILITY.

WYZ001-301300-
YELLOWSTONE NATIONAL PARK

CITY           SKY/WX    TMP DP  RH WIND       PRES   REMARKS
LK YELLOWSTONE   N/A     44  42  93 CALM      30.11F
6HR MIN TEMP:  42; 6HR MAX TEMP:  46;

W YELLOWSTONE  NOT AVBL

$$
WYZ002>013-054>058-071-098>099-301300-
NORTHERN WYOMING

CITY           SKY/WX    TMP DP  RH WIND       PRES   REMARKS
JACKSON        MOCLDY    46  43  87 CALM      30.04S
CODY           CLOUDY    66  45  45 SW7       29.90F
GREYBULL       MOCLDY    56  47  71 W9        29.87R
6HR MIN TEMP:  54; 6HR MAX TEMP:  66;

WORLAND        PTCLDY    54  49  83 VRB3      29.87S
6HR MIN TEMP:  53; 6HR MAX TEMP:  66;

SHERIDAN       CLEAR     47  43  86 CALM      29.84F
6HR MIN TEMP:  47; 6HR MAX TEMP:  60;

BUFFALO        CLEAR     58  42  55 SW3       29.91F
6HR MIN TEMP:  53; 6HR MAX TEMP:  65;

GILLETTE       CLEAR     58  52  80 S16       29.91F
6HR MIN TEMP:  58; 6HR MAX TEMP:  62;

HULETT         FAIR      57  50  77 MISG      29.93
NEWCASTLE      FAIR      61  46  59 SE12      29.97

$$
WYZ014>020-022>026-101>103-301300-
CENTRAL WYOMING

CITY           SKY/WX    TMP DP  RH WIND       PRES   REMARKS
BIG PINEY      PTCLDY    45  41  86 CALM      30.10F
6HR MIN TEMP:  44; 6HR MAX TEMP:  51;

PINEDALE       PTSUNNY   45  43  93 CALM      30.11F
DUBOIS         FAIR      43  36  75 CALM      30.07F
LANDER         MOCLDY    59  41  51 SW5       29.98S
6HR MIN TEMP:  55; 6HR MAX TEMP:  67;

RIVERTON       MOCLDY    54  42  64 NW8       29.98F
6HR MIN TEMP:  53; 6HR MAX TEMP:  66;

CASPER         CLEAR     62  42  47 MISG      29.99S
6HR MIN TEMP:  47; 6HR MAX TEMP:  67;

DOUGLAS        CLEAR     52  50  93 SE6       29.99F
6HR MIN TEMP:  52; 6HR MAX TEMP:  58;


$$
WYZ021-027>030-104>119-301300-
SOUTHERN WYOMING

CITY           SKY/WX    TMP DP  RH WIND       PRES   REMARKS
EVANSTON       CLEAR     53  40  61 SW13      30.10F
6HR MIN TEMP:  51; 6HR MAX TEMP:  58;

KEMMERER       MOSUNNY   45  41  87 N3        30.12S
FORT BRIDGER   FAIR      57  39  50 W5        30.12S
ROCK SPRINGS   PTCLDY    55  37  50 S9        30.10
6HR MIN TEMP:  55; 6HR MAX TEMP:  63;

DIXON          FAIR      47  44  89 CALM      30.19S
RAWLINS        CLEAR     49  40  71 CALM      30.13F
6HR MIN TEMP:  48; 6HR MAX TEMP:  62;

SARATOGA       FAIR      50  43  76 S10       30.18S
LARAMIE        CLEAR     45  41  86 S12       30.18R
6HR MIN TEMP:  44; 6HR MAX TEMP:  51;

CHEYENNE       CLEAR     50  46  86 SW3       30.11F
6HR MIN TEMP:  49; 6HR MAX TEMP:  54;

TORRINGTON     CLEAR     55  52  89 SE7       29.99S
6HR MIN TEMP:  52; 6HR MAX TEMP:  59;

PINE BLUFFS    FAIR      46  45  93 S6        30.08S

$$



USA.gov is the U.S. government's official web portal to all federal, state and local government web resources and services.